Skip Page Navigation
NASA JPL Caltech
NASA Logo - Jet Propulsion Laboratory + View the NASA Portal
+ Center for Near-Earth Object Studies
JPL Home Earth Solar System Stars & Galaxies Technology
JPL Solar System Dynamics
BODIES ORBITS EPHEMERIDES TOOLS PHYSICAL DATA DISCOVERY FAQ SITE MAP
JPL Small-Body Database Browser
Search: [ help ]  
(2015 EK7)
Classification: Apollo [NEO, PHA]          SPK-ID: 3713283
Ephemeris | Orbit Diagram | Orbital Elements | Mission Design | Physical Parameters | Close-Approach Data ]

[ hide orbit diagram ]

For accurate long-term ephemerides, please instead use our Horizons system.This orbit viewer was implemented using two-body methods, and hence should not be used for determining accurate long-term trajectories (over several years or decades) or planetary encounter circumstances.


[ revert to old Java-based viewer ]

Orbital Elements at Epoch 2459000.5 (2020-May-31.0) TDB
Reference: JPL 24 (heliocentric ecliptic J2000)
 Element Value Uncertainty (1-sigma)   Units 
e .3663727191431028 9.3873e-08  
a 1.510577034110664 1.4257e-07 au
q .9571428186484163 8.2661e-08 au
i 3.425097737131884 6.7703e-06 deg
node 140.7905480703939 6.9491e-05 deg
peri 125.78671317 7.0222e-05 deg
M 231.8206551839251 0.000136 deg
tp 2459241.950600567559
(2021-Jan-27.45060057)
0.00029023 TDB
period 678.1296653454285
1.86
9.6006e-05
2.629e-07
d
yr
n .5308719237590376 7.5158e-08 deg/d
Q 2.064011249572911 1.9481e-07 au
  Orbit Determination Parameters
   # obs. used (total)      52  
   data-arc span      948 days (2.60 yr)  
   first obs. used      2015-03-14  
   last obs. used      2017-10-17  
   planetary ephem.      DE431  
   SB-pert. ephem.      SB431-N16  
   condition code      1  
   norm. resid. RMS      .66347  
   source      ORB  
   producer      Otto Matic  
   solution date      2017-Oct-19 06:17:53  

Additional Information
 Earth MOID = .0160979 au 
 Jupiter MOID = 3.03739 au 
 T_jup = 4.446 
[ show covariance matrix ]

Ephemeris | Orbit Diagram | Orbital Elements | Mission Design | Physical Parameters | Close-Approach Data ]

Physical Parameter Table
Parameter Symbol Value Units Sigma Reference Notes
absolute magnitude H 22.1   n/a MPO369258  

[ hide close-approach data ]
Close-Approach Data   ...sorted by Date/Time (TDB)
Date/Time (TDB) Time Uncertainty
(days_HH:MM)
Body Nominal Distance (au) Minimum Distance (au) Maximum Distance (au) V-relative (km/s) V-infinity (km/s) JD (TDB) Time Uncertainty (minutes) Semi-major axis (km) Semi-minor axis (km) range-LOV angle (deg) N-sigma BP Orbit Ref. Reference Modified
1900-Apr-13 19:14 00:04 Earth 0.279465481387981 0.279401563679766 0.279529399681189 15.6909833304769 15.690375695966 2415123.301352772 3.97166204120698 3250.48350526639 18.1516257498666 -11.3234108981031 390400.477570521 T 24 CATAB v2.0e-lin.ifort 2017-Nov-30 04:17:16 2018-Dec-11 16:35
1911-Aug-28 12:34 00:03 Earth 0.400691633145438 0.400640226845897 0.400743039453999 19.4476292221384 19.4472872905413 2419277.023516699 2.56251957161006 2565.17390640742 12.3330894367424 2.14570112097292 160917.507460925 T 24 CATAB v2.0e-lin.ifort 2017-Nov-30 04:17:16 2018-Dec-11 16:35
1913-Apr-18 09:17 00:04 Earth 0.211191854588706 0.211143903666441 0.21123980636615 13.5895838787002 13.588655460021 2419875.886800090 3.7115653315314 2483.2849821505 18.1329139739723 -15.6695561140532 404208.155693936 T 24 CATAB v2.0e-lin.ifort 2017-Nov-30 04:17:16 2018-Dec-11 16:35
1913-Sep-14 12:57 00:40 Earth 0.498579361304464 0.498545285211929 0.49861344130771 5.35046018175505 5.34946126921311 2420025.039605824 40.3952080081012 2781.59575422868 11.6220720978897 52.3289211671518 1934475.28608607 T 24 CATAB v2.0e-lin.ifort 2017-Nov-30 04:17:16 2018-Dec-11 16:35
1924-Aug-30 12:20 00:01 Earth 0.450484757368229 0.45045481438312 0.450514700357051 20.894173864254 20.8938907837281 2424028.013804722 1.40527329150318 1494.53213263079 12.2889836563551 2.49762889689204 214933.773463603 T 24 CATAB v2.0e-lin.ifort 2017-Nov-30 04:17:16 2018-Dec-11 16:35
1926-Apr-22 07:44 00:02 Earth 0.162479784339219 0.162454664865782 0.162504904387157 12.0332460575645 12.0318831863462 2424627.822245035 2.42506059822243 1342.10412259533 18.1123590384106 -21.055659844784 415435.1469631 T 24 CATAB v2.0e-lin.ifort 2017-Nov-30 04:17:16 2018-Dec-11 16:35
1926-Sep-08 06:21 00:29 Earth 0.461237797709324 0.461217645371155 0.4612579523309 4.3815719480914 4.38025331832668 2424766.764514996 28.7650206617216 1905.20777293344 7.92161710300259 58.1405163429918 1537947.01046439 T 24 CATAB v2.0e-lin.ifort 2017-Nov-30 04:17:16 2018-Dec-11 16:35
1928-Jul-23 22:11 00:01 Mars 0.0600513427210027 0.0600344681326207 0.0600682184161276 9.55101954049253 9.55052037439675 2425451.424559338 1.25785909838313 934.602334973919 20.1701145659321 25.8001885724299 189552.476546514 T 24 CATAB v2.0e-lin.ifort 2017-Nov-30 04:17:16 2018-Dec-11 16:35
1930-Jun-06 21:39 < 00:01 Mars 0.0753155334436589 0.0753023858413963 0.0753286813823033 7.46769931312012 7.46719027581659 2426134.401849437 0.52605598017215 702.073555329195 20.1434227352565 -20.963540752865 209774.94845708 T 24 CATAB v2.0e-lin.ifort 2017-Nov-30 04:17:16 2018-Dec-11 16:35
1937-Sep-02 00:31 < 00:01 Earth 0.492771412801505 0.492765981008336 0.492776844594983 22.1092804025312 22.1090358373391 2428778.521869493 0.187529291616946 271.555306350241 12.2053519192911 4.11084948571921 455375.818431351 T 24 CATAB v2.0e-lin.ifort 2017-Nov-30 04:17:16 2018-Dec-11 16:35
1939-Apr-25 13:30 00:01 Earth 0.129271546198074 0.129262514397027 0.129280578164714 10.9097928263516 10.9079033976058 2429379.062779408 1.15621862608528 506.133069402389 18.0750972269918 -27.1782458357686 424252.095742169 T 24 CATAB v2.0e-lin.ifort 2017-Nov-30 04:17:16 2018-Dec-11 16:35
1939-Aug-31 22:02 00:20 Earth 0.431790455992006 0.431781433681214 0.431799479522854 3.18684611095548 3.18490919746399 2429507.417910959 19.6679816967698 1230.27393953726 7.41607884440415 68.5040388774671 1106846.34308197 T 24 CATAB v2.0e-lin.ifort 2017-Nov-30 04:17:16 2018-Dec-11 16:35
1950-Sep-01 19:42 00:02 Earth 0.480541797163634 0.480502528700845 0.480581065635628 21.7403137089505 21.7400586632954 2433526.321079779 1.66212705216693 1960.96479469926 12.2445484978773 3.07976345688226 282000.410281382 T 24 CATAB v2.0e-lin.ifort 2017-Nov-30 04:17:16 2018-Dec-11 16:35
1952-Apr-23 04:42 00:04 Earth 0.148634650360721 0.148594876929347 0.148674425755655 11.5780710549582 11.5765226479732 2434125.696020800 4.25759040094784 2158.6378057512 18.1126161338407 -23.2608518691742 418171.1482264 T 24 CATAB v2.0e-lin.ifort 2017-Nov-30 04:17:16 2018-Dec-11 16:35
1952-Sep-05 08:58 00:57 Earth 0.449372701067547 0.449338149386627 0.449407261964342 3.95250189225909 3.95100146127236 2434260.873732561 56.736153667873 3642.99087980107 6.27269192987224 61.7389736455484 1397926.37097863 T 24 CATAB v2.0e-lin.ifort 2017-Nov-30 04:17:16 2018-Dec-11 16:35
1961-Apr-03 16:33 00:02 Mars 0.0623039239789679 0.0622830929794852 0.0623247745610837 8.15867495858403 8.15811172810746 2437393.189879803 2.34367670649889 2028.54585277514 17.9118554408946 -59.18484547564 453957.650100215 T 24 CATAB v2.0e-lin.ifort 2017-Nov-30 04:17:16 2018-Dec-11 16:35
1963-Feb-14 10:43 00:03 Mars 0.09890537947751 0.0988695444975797 0.0989412198732116 9.83279971976568 9.83250533483088 2438074.946492746 2.9934465451099 2127.38731963366 17.5916988305064 32.8583643398507 444692.415120471 T 24 CATAB v2.0e-lin.ifort 2017-Nov-30 04:17:16 2018-Dec-11 16:35
1963-Aug-30 07:36 00:03 Earth 0.42369400618271 0.423635619485701 0.423752392895999 20.1036796734877 20.1033668582791 2438271.816412070 2.71922407426035 2914.45003450517 12.2774747394693 2.59628825412089 206832.17379213 T 24 CATAB v2.0e-lin.ifort 2017-Nov-30 04:17:16 2018-Dec-11 16:35
1965-Apr-19 04:39 00:05 Earth 0.206081517153713 0.2060234116886 0.20613962398866 13.4470239619056 13.4460624322963 2438869.693602762 4.63555750670098 3016.23245220694 18.1807313719028 -16.1407598914726 404691.940029925 T 24 CATAB v2.0e-lin.ifort 2017-Nov-30 04:17:16 2018-Dec-11 16:35
1965-Sep-14 19:13 00:51 Earth 0.495432835137109 0.495390579681844 0.495475096812762 5.29524739574256 5.29423165477155 2439018.300768040 51.1116896943806 3479.28764351932 11.3196038935698 52.7076643200801 1935132.4006816 T 24 CATAB v2.0e-lin.ifort 2017-Nov-30 04:17:16 2018-Dec-11 16:35
1976-Aug-25 07:07 00:03 Earth 0.338784002653575 0.338721427534161 0.338846577784236 17.6421534098856 17.6417076065076 2443015.796199892 3.39077135224343 3121.88684903749 12.3223952446125 1.833276095401 115189.617960239 T 24 CATAB v2.0e-lin.ifort 2017-Nov-30 04:17:16 2018-Dec-11 16:35
1978-Apr-14 15:44 00:04 Earth 0.288216777930378 0.288155781129002 0.288277775215699 15.9449847212067 15.9444049229748 2443613.155883274 3.73852462125297 3098.16865212988 18.2561682301 -10.9690659591719 388007.124127524 T 24 CATAB v2.0e-lin.ifort 2017-Nov-30 04:17:16 2018-Dec-11 16:35
1989-Aug-21 02:30 00:04 Earth 0.253368125410645 0.253314047632593 0.253422203189964 15.1661987945115 15.1655053789839 2447759.604384520 3.55939951692467 2696.78808299004 12.3379994276088 0.78897990365969 38025.4933411975 T 24 CATAB v2.0e-lin.ifort 2017-Nov-30 04:17:16 2018-Dec-11 16:35
1991-Apr-10 13:46 00:03 Earth 0.372300661857038 0.37224981504202 0.372351508808365 18.4724724039125 18.4720849696038 2448357.073303802 2.58186979547176 2560.29385594532 18.3069798093935 -7.98519350733486 369544.186257717 T 24 CATAB v2.0e-lin.ifort 2017-Nov-30 04:17:16 2018-Dec-11 16:35
2002-Mar-21 21:00 00:26 Earth 0.48625269703915 0.486230259055423 0.486275136319206 5.50166998893084 5.50067390688104 2452355.375183009 26.0575873452879 1679.29158356787 15.4425053648663 48.2012930622131 1740031.43494532 T 24 CATAB v2.0e-lin.ifort 2017-Nov-30 04:17:16 2018-Dec-11 16:35
